Location: Houhaj�rvi
(61.2833°N, 23.0000°E)
Time: 17:52:11
(UTC+00:00)

Lacrosse 5 - Pass Details

Date: 27 February 2020
Orbit: 715 x 724 km, 57.0° (Epoch: 21 March)

Event Time Altitude Azimuth Distance (km) Brightness Sun altitude
Rises 18:50:27 0° 222° (SW) 3,114 5.4 -22.5°
Reaches altitude 10° 18:53:01 10° 213° (SSW) 2,197 4.4 -22.7°
Enters shadow 18:55:37 25° 189° (S) 1,427 3.2 -23.0°
